Location: Bovenkerk
(52.2915°N, 4.8336°E)
Time: 09:30:46
(UTC+00:00)

Nadezhda 1 Rocket - Pass Details

Date: 09 April 2020
Orbit: 940 x 1006 km, 83.0° (Epoch: 22 May)

Event Time Altitude Azimuth Distance (km) Brightness Sun altitude
Rises 19:17:48 0° 181° (S) 3,721 6.8 -7.8°
Reaches altitude 10° 19:20:20 10° 180° (S) 2,772 6.1 -8.2°
Maximum altitude 19:26:41 76° 97° (E) 1,033 4.0 -9.0°
Drops below altitude 10° 19:33:01 10° 13° (NNE) 2,758 6.6 -9.9°
Sets 19:35:32 0° 12° (NNE) 3,701 7.2 -10.3°
